Year,Month,Day,Hour,Minute,Value (Times are PST for temperature in C)
2014,06,11,00,00,10.60
2014,06,11,00,01,10.60
2014,06,11,00,02,10.60
2014,06,11,00,03,10.60
2014,06,11,00,04,10.60
2014,06,11,00,05,10.60
2014,06,11,00,06,10.50
2014,06,11,00,07,10.50
2014,06,11,00,08,10.50
2014,06,11,00,09,10.50
2014,06,11,00,10,10.50
2014,06,11,00,11,10.40
2014,06,11,00,12,10.40
2014,06,11,00,13,10.40
2014,06,11,00,14,10.40
2014,06,11,00,15,10.40
2014,06,11,00,16,10.30
2014,06,11,00,17,10.30
2014,06,11,00,18,10.30
2014,06,11,00,19,10.30
2014,06,11,00,20,10.20
2014,06,11,00,21,10.20
2014,06,11,00,22,10.20
2014,06,11,00,23,10.20
2014,06,11,00,24,10.20
2014,06,11,00,25,10.10
2014,06,11,00,26,10.10
2014,06,11,00,27,10.10
2014,06,11,00,28,10.10
2014,06,11,00,29,10.00
2014,06,11,00,30,10.00
2014,06,11,00,31,10.00
2014,06,11,00,32,9.90
2014,06,11,00,33,9.90
2014,06,11,00,34,9.90
2014,06,11,00,35,9.90
2014,06,11,00,36,9.90
2014,06,11,00,37,9.90
2014,06,11,00,38,9.90
2014,06,11,00,39,9.90
2014,06,11,00,40,9.90
2014,06,11,00,41,9.80
2014,06,11,00,42,9.80
2014,06,11,00,43,9.80
2014,06,11,00,44,9.80
2014,06,11,00,45,9.80
2014,06,11,00,46,9.80
2014,06,11,00,47,9.80
2014,06,11,00,48,9.80
2014,06,11,00,49,9.70
2014,06,11,00,50,9.70
2014,06,11,00,51,9.70
2014,06,11,00,52,9.70
2014,06,11,00,53,9.70
2014,06,11,00,54,9.80
2014,06,11,00,55,9.80
2014,06,11,00,56,9.80
2014,06,11,00,57,9.80
2014,06,11,00,58,9.70
2014,06,11,00,59,9.70
2014,06,11,01,00,9.70
2014,06,11,01,01,9.70
2014,06,11,01,02,9.70
2014,06,11,01,03,9.70
2014,06,11,01,04,9.70
2014,06,11,01,05,9.70
2014,06,11,01,06,9.70
2014,06,11,01,07,9.70
2014,06,11,01,08,9.70
2014,06,11,01,09,9.70
2014,06,11,01,10,9.70
2014,06,11,01,11,9.70
2014,06,11,01,12,9.70
2014,06,11,01,13,9.60
2014,06,11,01,14,9.60
2014,06,11,01,15,9.60
2014,06,11,01,16,9.60
2014,06,11,01,17,9.60
2014,06,11,01,18,9.60
2014,06,11,01,19,9.60
2014,06,11,01,20,9.50
2014,06,11,01,21,9.50
2014,06,11,01,22,9.50
2014,06,11,01,23,9.50
2014,06,11,01,24,9.50
2014,06,11,01,25,9.40
2014,06,11,01,26,9.40
2014,06,11,01,27,9.40
2014,06,11,01,28,9.40
2014,06,11,01,29,9.40
2014,06,11,01,30,9.40
2014,06,11,01,31,9.40
2014,06,11,01,32,9.30
2014,06,11,01,33,9.30
2014,06,11,01,34,9.30
2014,06,11,01,35,9.30
2014,06,11,01,36,9.30
2014,06,11,01,37,9.30
2014,06,11,01,38,9.20
2014,06,11,01,39,9.20
2014,06,11,01,40,9.20
2014,06,11,01,41,9.20
2014,06,11,01,42,9.20
2014,06,11,01,43,9.20
2014,06,11,01,44,9.20
2014,06,11,01,45,9.10
2014,06,11,01,46,9.10
2014,06,11,01,47,9.10
2014,06,11,01,48,9.10
2014,06,11,01,49,9.10
2014,06,11,01,50,9.10
2014,06,11,01,51,9.00
2014,06,11,01,52,9.00
2014,06,11,01,53,9.00
2014,06,11,01,54,8.90
2014,06,11,01,55,8.90
2014,06,11,01,56,8.90
2014,06,11,01,57,8.90
2014,06,11,01,58,8.90
2014,06,11,01,59,8.90
2014,06,11,02,00,8.80
2014,06,11,02,01,8.80
2014,06,11,02,02,8.80
2014,06,11,02,03,8.80
2014,06,11,02,04,8.80
2014,06,11,02,05,8.80
2014,06,11,02,06,8.80
2014,06,11,02,07,8.80
2014,06,11,02,08,8.70
2014,06,11,02,09,8.70
2014,06,11,02,10,8.70
2014,06,11,02,11,8.70
2014,06,11,02,12,8.70
2014,06,11,02,13,8.70
2014,06,11,02,14,8.60
2014,06,11,02,15,8.60
2014,06,11,02,16,8.60
2014,06,11,02,17,8.60
2014,06,11,02,18,8.60
2014,06,11,02,19,8.60
2014,06,11,02,20,8.60
2014,06,11,02,21,8.60
2014,06,11,02,22,8.60
2014,06,11,02,23,8.50
2014,06,11,02,24,8.50
2014,06,11,02,25,8.50
2014,06,11,02,26,8.50
2014,06,11,02,27,8.50
2014,06,11,02,28,8.50
2014,06,11,02,29,8.50
2014,06,11,02,30,8.50
2014,06,11,02,31,8.50
2014,06,11,02,32,8.50
2014,06,11,02,33,8.50
2014,06,11,02,34,8.50
2014,06,11,02,35,8.50
2014,06,11,02,36,8.50
2014,06,11,02,37,8.50
2014,06,11,02,38,8.50
2014,06,11,02,39,8.50
2014,06,11,02,40,8.40
2014,06,11,02,41,8.40
2014,06,11,02,42,8.40
2014,06,11,02,43,8.40
2014,06,11,02,44,8.40
2014,06,11,02,45,8.40
2014,06,11,02,46,8.40
2014,06,11,02,47,8.30
2014,06,11,02,48,8.30
2014,06,11,02,49,8.30
2014,06,11,02,50,8.30
2014,06,11,02,51,8.30
2014,06,11,02,52,8.30
2014,06,11,02,53,8.30
2014,06,11,02,54,8.30
2014,06,11,02,55,8.30
2014,06,11,02,56,8.30
2014,06,11,02,57,8.30
2014,06,11,02,58,8.30
2014,06,11,02,59,8.30
2014,06,11,03,00,8.30
2014,06,11,03,01,8.30
2014,06,11,03,02,8.30
2014,06,11,03,03,8.20
2014,06,11,03,04,8.20
2014,06,11,03,05,8.20
2014,06,11,03,06,8.20
2014,06,11,03,07,8.20
2014,06,11,03,08,8.20
2014,06,11,03,09,8.20
2014,06,11,03,10,8.20
2014,06,11,03,11,8.20
2014,06,11,03,12,8.20
2014,06,11,03,13,8.20
2014,06,11,03,14,8.10
2014,06,11,03,15,8.10
2014,06,11,03,16,8.10
2014,06,11,03,17,8.10
2014,06,11,03,18,8.10
2014,06,11,03,19,8.10
2014,06,11,03,20,8.10
2014,06,11,03,21,8.10
2014,06,11,03,22,8.10
2014,06,11,03,23,8.10
2014,06,11,03,24,8.10
2014,06,11,03,25,8.00
2014,06,11,03,26,8.10
2014,06,11,03,27,8.10
2014,06,11,03,28,8.10
2014,06,11,03,29,8.10
2014,06,11,03,30,8.10
2014,06,11,03,31,8.10
2014,06,11,03,32,8.10
2014,06,11,03,33,8.10
2014,06,11,03,34,8.10
2014,06,11,03,35,8.10
2014,06,11,03,36,8.00
2014,06,11,03,37,8.00
2014,06,11,03,38,8.00
2014,06,11,03,39,8.00
2014,06,11,03,40,8.00
2014,06,11,03,41,8.00
2014,06,11,03,42,8.00
2014,06,11,03,43,8.00
2014,06,11,03,44,8.00
2014,06,11,03,45,8.00
2014,06,11,03,46,8.00
2014,06,11,03,47,8.00
2014,06,11,03,48,8.00
2014,06,11,03,49,8.00
2014,06,11,03,50,8.00
2014,06,11,03,51,8.00
2014,06,11,03,52,8.00
2014,06,11,03,53,7.90
2014,06,11,03,54,7.90
2014,06,11,03,55,7.90
2014,06,11,03,56,7.90
2014,06,11,03,57,7.90
2014,06,11,03,58,7.90
2014,06,11,03,59,7.90
2014,06,11,04,00,7.90
2014,06,11,04,01,7.90
2014,06,11,04,02,7.90
2014,06,11,04,03,7.90
2014,06,11,04,04,7.90
2014,06,11,04,05,7.80
2014,06,11,04,06,7.80
2014,06,11,04,07,7.80
2014,06,11,04,08,7.80
2014,06,11,04,09,7.80
2014,06,11,04,10,7.80
2014,06,11,04,11,7.80
2014,06,11,04,12,7.80
2014,06,11,04,13,7.80
2014,06,11,04,14,7.80
2014,06,11,04,15,7.70
2014,06,11,04,16,7.70
2014,06,11,04,17,7.70
2014,06,11,04,18,7.70
2014,06,11,04,19,7.70
2014,06,11,04,20,7.70
2014,06,11,04,21,7.70
2014,06,11,04,22,7.70
2014,06,11,04,23,7.70
2014,06,11,04,24,7.60
2014,06,11,04,25,7.60
2014,06,11,04,26,7.60
2014,06,11,04,27,7.60
2014,06,11,04,28,7.60
2014,06,11,04,29,7.60
2014,06,11,04,30,7.60
2014,06,11,04,31,7.60
2014,06,11,04,32,7.60
2014,06,11,04,33,7.60
2014,06,11,04,34,7.60
2014,06,11,04,35,7.60
2014,06,11,04,36,7.50
2014,06,11,04,37,7.50
2014,06,11,04,38,7.50
2014,06,11,04,39,7.50
2014,06,11,04,40,7.50
2014,06,11,04,41,7.50
2014,06,11,04,42,7.50
2014,06,11,04,43,7.40
2014,06,11,04,44,7.40
2014,06,11,04,45,7.40
2014,06,11,04,46,7.40
2014,06,11,04,47,7.40
2014,06,11,04,48,7.40
2014,06,11,04,49,7.40
2014,06,11,04,50,7.40
2014,06,11,04,51,7.40
2014,06,11,04,52,7.40
2014,06,11,04,53,7.40
2014,06,11,04,54,7.40
2014,06,11,04,55,7.40
2014,06,11,04,56,7.40
2014,06,11,04,57,7.40
2014,06,11,04,58,7.40
2014,06,11,04,59,7.40
2014,06,11,05,00,7.40
2014,06,11,05,01,7.40
2014,06,11,05,02,7.40
2014,06,11,05,03,7.40
2014,06,11,05,04,7.40
2014,06,11,05,05,7.40
2014,06,11,05,06,7.40
2014,06,11,05,07,7.40
2014,06,11,05,08,7.40
2014,06,11,05,09,7.40
2014,06,11,05,10,7.40
2014,06,11,05,11,7.40
2014,06,11,05,12,7.40
2014,06,11,05,13,7.40
2014,06,11,05,14,7.40
2014,06,11,05,15,7.40
2014,06,11,05,16,7.40
2014,06,11,05,17,7.40
2014,06,11,05,18,7.30
2014,06,11,05,19,7.30
2014,06,11,05,20,7.30
2014,06,11,05,21,7.30
2014,06,11,05,22,7.30
2014,06,11,05,23,7.30
2014,06,11,05,24,7.30
2014,06,11,05,25,7.30
2014,06,11,05,26,7.30
2014,06,11,05,27,7.30
2014,06,11,05,28,7.30
2014,06,11,05,29,7.30
2014,06,11,05,30,7.30
2014,06,11,05,31,7.30
2014,06,11,05,32,7.30
2014,06,11,05,33,7.30
2014,06,11,05,34,7.30
2014,06,11,05,35,7.30
2014,06,11,05,36,7.30
2014,06,11,05,37,7.30
2014,06,11,05,38,7.30
2014,06,11,05,39,7.30
2014,06,11,05,40,7.30
2014,06,11,05,41,7.30
2014,06,11,05,42,7.30
2014,06,11,05,43,7.30
2014,06,11,05,44,7.30
2014,06,11,05,45,7.30
2014,06,11,05,46,7.30
2014,06,11,05,47,7.30
2014,06,11,05,48,7.30
2014,06,11,05,49,7.30
2014,06,11,05,50,7.30
2014,06,11,05,51,7.40
2014,06,11,05,52,7.40
2014,06,11,05,53,7.40
2014,06,11,05,54,7.40
2014,06,11,05,55,7.40
2014,06,11,05,56,7.40
2014,06,11,05,57,7.40
2014,06,11,05,58,7.40
2014,06,11,05,59,7.50
2014,06,11,06,00,7.50
2014,06,11,06,01,7.50
2014,06,11,06,02,7.60
2014,06,11,06,03,7.60
2014,06,11,06,04,7.60
2014,06,11,06,05,7.70
2014,06,11,06,06,7.70
2014,06,11,06,07,7.70
2014,06,11,06,08,7.80
2014,06,11,06,09,7.80
2014,06,11,06,10,7.80
2014,06,11,06,11,7.80
2014,06,11,06,12,7.90
2014,06,11,06,13,7.90
2014,06,11,06,14,7.90
2014,06,11,06,15,7.90
2014,06,11,06,16,8.00
2014,06,11,06,17,8.00
2014,06,11,06,18,8.00
2014,06,11,06,19,8.10
2014,06,11,06,20,8.10
2014,06,11,06,21,8.10
2014,06,11,06,22,8.10
2014,06,11,06,23,8.10
2014,06,11,06,24,8.10
2014,06,11,06,25,8.10
2014,06,11,06,26,8.10
2014,06,11,06,27,8.20
2014,06,11,06,28,8.20
2014,06,11,06,29,8.20
2014,06,11,06,30,8.20
2014,06,11,06,31,8.30
2014,06,11,06,32,8.30
2014,06,11,06,33,8.30
2014,06,11,06,34,8.40
2014,06,11,06,35,8.40
2014,06,11,06,36,8.40
2014,06,11,06,37,8.50
2014,06,11,06,38,8.50
2014,06,11,06,39,8.60
2014,06,11,06,40,8.60
2014,06,11,06,41,8.70
2014,06,11,06,42,8.80
2014,06,11,06,43,8.80
2014,06,11,06,44,8.90
2014,06,11,06,45,9.00
2014,06,11,06,46,9.00
2014,06,11,06,47,9.10
2014,06,11,06,48,9.20
2014,06,11,06,49,9.20
2014,06,11,06,50,9.30
2014,06,11,06,51,9.40
2014,06,11,06,52,9.40
2014,06,11,06,53,9.50
2014,06,11,06,54,9.60
2014,06,11,06,55,9.60
2014,06,11,06,56,9.70
2014,06,11,06,57,9.70
2014,06,11,06,58,9.80
2014,06,11,06,59,9.80
2014,06,11,07,00,9.80
2014,06,11,07,01,9.90
2014,06,11,07,02,9.90
2014,06,11,07,03,10.00
2014,06,11,07,04,10.00
2014,06,11,07,05,10.10
2014,06,11,07,06,10.10
2014,06,11,07,07,10.20
2014,06,11,07,08,10.30
2014,06,11,07,09,10.30
2014,06,11,07,10,10.30
2014,06,11,07,11,10.40
2014,06,11,07,12,10.40
2014,06,11,07,13,10.50
2014,06,11,07,14,10.50
2014,06,11,07,15,10.60
2014,06,11,07,16,10.60
2014,06,11,07,17,10.70
2014,06,11,07,18,10.70
2014,06,11,07,19,10.70
2014,06,11,07,20,10.70
2014,06,11,07,21,10.80
2014,06,11,07,22,10.80
2014,06,11,07,23,10.80
2014,06,11,07,24,10.90
2014,06,11,07,25,10.90
2014,06,11,07,26,11.00
2014,06,11,07,27,11.00
2014,06,11,07,28,11.10
2014,06,11,07,29,11.10
2014,06,11,07,30,11.10
2014,06,11,07,31,11.10
2014,06,11,07,32,11.10
2014,06,11,07,33,11.20
2014,06,11,07,34,11.20
2014,06,11,07,35,11.20
2014,06,11,07,36,11.30
2014,06,11,07,37,11.30
2014,06,11,07,38,11.40
2014,06,11,07,39,11.50
2014,06,11,07,40,11.60
2014,06,11,07,41,11.60
2014,06,11,07,42,11.70
2014,06,11,07,43,11.80
2014,06,11,07,44,11.80
2014,06,11,07,45,11.90
2014,06,11,07,46,11.90
2014,06,11,07,47,12.00
2014,06,11,07,48,12.00
2014,06,11,07,49,12.10
2014,06,11,07,50,12.10
2014,06,11,07,51,12.20
2014,06,11,07,52,12.20
2014,06,11,07,53,12.30
2014,06,11,07,54,12.30
2014,06,11,07,55,12.30
2014,06,11,07,56,12.30
2014,06,11,07,57,12.30
2014,06,11,07,58,12.30
2014,06,11,07,59,12.40
2014,06,11,08,00,12.40
2014,06,11,08,01,12.40
2014,06,11,08,02,12.40
2014,06,11,08,03,12.40
2014,06,11,08,04,12.40
2014,06,11,08,05,12.40
2014,06,11,08,06,12.50
2014,06,11,08,07,12.50
2014,06,11,08,08,12.60
2014,06,11,08,09,12.70
2014,06,11,08,10,12.80
2014,06,11,08,11,12.90
2014,06,11,08,12,12.90
2014,06,11,08,13,13.00
2014,06,11,08,14,13.00
2014,06,11,08,15,13.10
2014,06,11,08,16,13.10
2014,06,11,08,17,13.10
2014,06,11,08,18,13.10
2014,06,11,08,19,13.10
2014,06,11,08,20,13.10
2014,06,11,08,21,13.20
2014,06,11,08,22,13.20
2014,06,11,08,23,13.20
2014,06,11,08,24,13.30
2014,06,11,08,25,13.30
2014,06,11,08,26,13.40
2014,06,11,08,27,13.40
2014,06,11,08,28,13.50
2014,06,11,08,29,13.60
2014,06,11,08,30,13.60
2014,06,11,08,31,13.60
2014,06,11,08,32,13.60
2014,06,11,08,33,13.60
2014,06,11,08,34,13.60
2014,06,11,08,35,13.60
2014,06,11,08,36,13.70
2014,06,11,08,37,13.70
2014,06,11,08,38,13.70
2014,06,11,08,39,13.80
2014,06,11,08,40,13.80
2014,06,11,08,41,13.80
2014,06,11,08,42,13.80
2014,06,11,08,43,13.80
2014,06,11,08,44,13.90
2014,06,11,08,45,13.90
2014,06,11,08,46,14.00
2014,06,11,08,47,14.00
2014,06,11,08,48,14.10
2014,06,11,08,49,14.10
2014,06,11,08,50,14.20
2014,06,11,08,51,14.30
2014,06,11,08,52,14.30
2014,06,11,08,53,14.30
2014,06,11,08,54,14.30
2014,06,11,08,55,14.30
2014,06,11,08,56,14.30
2014,06,11,08,57,14.30
2014,06,11,08,58,14.30
2014,06,11,08,59,14.30
2014,06,11,09,00,14.20
2014,06,11,09,01,14.30
2014,06,11,09,02,14.30
2014,06,11,09,03,14.30
2014,06,11,09,04,14.40
2014,06,11,09,05,14.40
2014,06,11,09,06,14.40
2014,06,11,09,07,14.30
2014,06,11,09,08,14.30
2014,06,11,09,09,14.20
2014,06,11,09,10,14.10
2014,06,11,09,11,14.00
2014,06,11,09,12,13.90
2014,06,11,09,13,13.80
2014,06,11,09,14,13.80
2014,06,11,09,15,13.70
2014,06,11,09,16,13.70
2014,06,11,09,17,13.70
2014,06,11,09,18,13.70
2014,06,11,09,19,13.60
2014,06,11,09,20,13.60
2014,06,11,09,21,13.60
2014,06,11,09,22,13.50
2014,06,11,09,23,13.50
2014,06,11,09,24,13.50
2014,06,11,09,25,13.60
2014,06,11,09,26,13.60
2014,06,11,09,27,13.60
2014,06,11,09,28,13.60
2014,06,11,09,29,13.60
2014,06,11,09,30,13.60
2014,06,11,09,31,13.60
2014,06,11,09,32,13.70
2014,06,11,09,33,13.70
2014,06,11,09,34,13.80
2014,06,11,09,35,13.90
2014,06,11,09,36,13.90
2014,06,11,09,37,14.00
2014,06,11,09,38,14.10
2014,06,11,09,39,14.10
2014,06,11,09,40,14.20
2014,06,11,09,41,14.20
2014,06,11,09,42,14.10
2014,06,11,09,43,14.00
2014,06,11,09,44,14.00
2014,06,11,09,45,13.90
2014,06,11,09,46,13.90
2014,06,11,09,47,13.90
2014,06,11,09,48,13.90
2014,06,11,09,49,13.90
2014,06,11,09,50,13.90
2014,06,11,09,51,14.00
2014,06,11,09,52,14.00
2014,06,11,09,53,14.10
2014,06,11,09,54,14.10
2014,06,11,09,55,14.20
2014,06,11,09,56,14.20
2014,06,11,09,57,14.20
2014,06,11,09,58,14.30
2014,06,11,09,59,14.30
2014,06,11,10,00,14.30
2014,06,11,10,01,14.30
2014,06,11,10,02,14.30
2014,06,11,10,03,14.30
2014,06,11,10,04,14.30
2014,06,11,10,05,14.30
2014,06,11,10,06,14.40
2014,06,11,10,07,14.40
2014,06,11,10,08,14.50
2014,06,11,10,09,14.60
2014,06,11,10,10,14.70
2014,06,11,10,11,14.80
2014,06,11,10,12,14.80
2014,06,11,10,13,14.80
2014,06,11,10,14,14.80
2014,06,11,10,15,14.80
2014,06,11,10,16,14.70
2014,06,11,10,17,14.70
2014,06,11,10,18,14.70
2014,06,11,10,19,14.80
2014,06,11,10,20,14.70
2014,06,11,10,21,14.70
2014,06,11,10,22,14.70
2014,06,11,10,23,14.70
2014,06,11,10,24,14.70
2014,06,11,10,25,14.80
2014,06,11,10,26,14.80
2014,06,11,10,27,14.80
2014,06,11,10,28,14.80
2014,06,11,10,29,14.90
2014,06,11,10,30,14.90
2014,06,11,10,31,14.90
2014,06,11,10,32,14.90
2014,06,11,10,33,14.90
2014,06,11,10,34,14.90
2014,06,11,10,35,15.00
2014,06,11,10,36,15.00
2014,06,11,10,37,15.00
2014,06,11,10,38,15.00
2014,06,11,10,39,15.00
2014,06,11,10,40,15.00
2014,06,11,10,41,14.90
2014,06,11,10,42,15.00
2014,06,11,10,43,14.90
2014,06,11,10,44,14.90
2014,06,11,10,45,14.80
2014,06,11,10,46,14.80
2014,06,11,10,47,14.80
2014,06,11,10,48,14.80
2014,06,11,10,49,14.80
2014,06,11,10,50,14.90
2014,06,11,10,51,14.90
2014,06,11,10,52,15.00
2014,06,11,10,53,15.10
2014,06,11,10,54,15.10
2014,06,11,10,55,15.10
2014,06,11,10,56,15.20
2014,06,11,10,57,15.20
2014,06,11,10,58,15.30
2014,06,11,10,59,15.30
2014,06,11,11,00,15.30
2014,06,11,11,01,15.30
2014,06,11,11,02,15.30
2014,06,11,11,03,15.40
2014,06,11,11,04,15.40
2014,06,11,11,05,15.40
2014,06,11,11,06,15.40
2014,06,11,11,07,15.40
2014,06,11,11,08,15.30
2014,06,11,11,09,15.20
2014,06,11,11,10,15.10
2014,06,11,11,11,15.00
2014,06,11,11,12,15.00
2014,06,11,11,13,15.00
2014,06,11,11,14,15.00
2014,06,11,11,15,15.10
2014,06,11,11,16,15.10
2014,06,11,11,17,15.00
2014,06,11,11,18,15.00
2014,06,11,11,19,15.00
2014,06,11,11,20,14.90
2014,06,11,11,21,14.90
2014,06,11,11,22,14.90
2014,06,11,11,23,14.80
2014,06,11,11,24,14.80
2014,06,11,11,25,14.80
2014,06,11,11,26,14.80
2014,06,11,11,27,14.80
2014,06,11,11,28,14.80
2014,06,11,11,29,14.80
2014,06,11,11,30,14.80
2014,06,11,11,31,14.80
2014,06,11,11,32,14.80
2014,06,11,11,33,14.80
2014,06,11,11,34,14.70
2014,06,11,11,35,14.70
2014,06,11,11,36,14.70
2014,06,11,11,37,14.70
2014,06,11,11,38,14.80
2014,06,11,11,39,14.80
2014,06,11,11,40,14.90
2014,06,11,11,41,14.90
2014,06,11,11,42,14.90
2014,06,11,11,43,14.90
2014,06,11,11,44,14.90
2014,06,11,11,45,14.90
2014,06,11,11,46,14.90
2014,06,11,11,47,14.90
2014,06,11,11,48,15.00
2014,06,11,11,49,15.10
2014,06,11,11,50,15.20
2014,06,11,11,51,15.30
2014,06,11,11,52,15.40
2014,06,11,11,53,15.40
2014,06,11,11,54,15.50
2014,06,11,11,55,15.60
2014,06,11,11,56,15.70
2014,06,11,11,57,15.70
2014,06,11,11,58,15.70
2014,06,11,11,59,15.70
2014,06,11,12,00,15.70
2014,06,11,12,01,15.70
2014,06,11,12,02,15.70
2014,06,11,12,03,15.70
2014,06,11,12,04,15.70
2014,06,11,12,05,15.70
2014,06,11,12,06,15.70
2014,06,11,12,07,15.60
2014,06,11,12,08,15.60
2014,06,11,12,09,15.50
2014,06,11,12,10,15.60
2014,06,11,12,11,15.60
2014,06,11,12,12,15.70
2014,06,11,12,13,15.70
2014,06,11,12,14,15.70
2014,06,11,12,15,15.80
2014,06,11,12,16,15.90
2014,06,11,12,17,15.90
2014,06,11,12,18,16.00
2014,06,11,12,19,15.90
2014,06,11,12,20,15.90
2014,06,11,12,21,16.00
2014,06,11,12,22,16.00
2014,06,11,12,23,16.10
2014,06,11,12,24,16.20
2014,06,11,12,25,16.40
2014,06,11,12,26,16.50
2014,06,11,12,27,16.60
2014,06,11,12,28,16.60
2014,06,11,12,29,16.60
2014,06,11,12,30,16.50
2014,06,11,12,31,16.50
2014,06,11,12,32,16.50
2014,06,11,12,33,16.40
2014,06,11,12,34,16.40
2014,06,11,12,35,16.40
2014,06,11,12,36,16.50
2014,06,11,12,37,16.50
2014,06,11,12,38,16.50
2014,06,11,12,39,16.60
2014,06,11,12,40,16.60
2014,06,11,12,41,16.70
2014,06,11,12,42,16.80
2014,06,11,12,43,16.80
2014,06,11,12,44,16.90
2014,06,11,12,45,17.00
2014,06,11,12,46,17.00
2014,06,11,12,47,17.10
2014,06,11,12,48,17.20
2014,06,11,12,49,17.20
2014,06,11,12,50,17.20
2014,06,11,12,51,17.20
2014,06,11,12,52,17.20
2014,06,11,12,53,17.20
2014,06,11,12,54,17.20
2014,06,11,12,55,17.20
2014,06,11,12,56,17.10
2014,06,11,12,57,17.10
2014,06,11,12,58,17.00
2014,06,11,12,59,16.90
2014,06,11,13,00,16.70
2014,06,11,13,01,16.60
2014,06,11,13,02,16.50
2014,06,11,13,03,16.40
2014,06,11,13,04,16.40
2014,06,11,13,05,16.50
2014,06,11,13,06,16.50
2014,06,11,13,07,16.60
2014,06,11,13,08,16.60
2014,06,11,13,09,16.60
2014,06,11,13,10,16.60
2014,06,11,13,11,16.60
2014,06,11,13,12,16.60
2014,06,11,13,13,16.50
2014,06,11,13,14,16.40
2014,06,11,13,15,16.40
2014,06,11,13,16,16.30
2014,06,11,13,17,16.30
2014,06,11,13,18,16.30
2014,06,11,13,19,16.30
2014,06,11,13,20,16.20
2014,06,11,13,21,16.20
2014,06,11,13,22,16.20
2014,06,11,13,23,16.20
2014,06,11,13,24,16.20
2014,06,11,13,25,16.20
2014,06,11,13,26,16.20
2014,06,11,13,27,16.20
2014,06,11,13,28,16.10
2014,06,11,13,29,16.00
2014,06,11,13,30,15.90
2014,06,11,13,31,15.90
2014,06,11,13,32,15.90
2014,06,11,13,33,15.90
2014,06,11,13,34,15.90
2014,06,11,13,35,16.00
2014,06,11,13,36,16.10
2014,06,11,13,37,16.10
2014,06,11,13,38,16.10
2014,06,11,13,39,16.00
2014,06,11,13,40,16.00
2014,06,11,13,41,16.00
2014,06,11,13,42,16.10
2014,06,11,13,43,16.20
2014,06,11,13,44,16.30
2014,06,11,13,45,16.40
2014,06,11,13,46,16.50
2014,06,11,13,47,16.50
2014,06,11,13,48,16.40
2014,06,11,13,49,16.40
2014,06,11,13,50,16.50
2014,06,11,13,51,16.50
2014,06,11,13,52,16.60
2014,06,11,13,53,16.60
2014,06,11,13,54,16.60
2014,06,11,13,55,16.60
2014,06,11,13,56,16.60
2014,06,11,13,57,16.60
2014,06,11,13,58,16.60
2014,06,11,13,59,16.60
2014,06,11,14,00,16.60
2014,06,11,14,01,16.60
2014,06,11,14,02,16.60
2014,06,11,14,03,16.60
2014,06,11,14,04,16.60
2014,06,11,14,05,16.60
2014,06,11,14,06,16.60
2014,06,11,14,07,16.60
2014,06,11,14,08,16.50
2014,06,11,14,09,16.50
2014,06,11,14,10,16.50
2014,06,11,14,11,16.50
2014,06,11,14,12,16.40
2014,06,11,14,13,16.40
2014,06,11,14,14,16.40
2014,06,11,14,15,16.40
2014,06,11,14,16,16.30
2014,06,11,14,17,16.30
2014,06,11,14,18,16.30
2014,06,11,14,19,16.30
2014,06,11,14,20,16.30
2014,06,11,14,21,16.30
2014,06,11,14,22,16.30
2014,06,11,14,23,16.30
2014,06,11,14,24,16.40
2014,06,11,14,25,16.40
2014,06,11,14,26,16.40
2014,06,11,14,27,16.40
2014,06,11,14,28,16.40
2014,06,11,14,29,16.40
2014,06,11,14,30,16.40
2014,06,11,14,31,16.50
2014,06,11,14,32,16.60
2014,06,11,14,33,16.60
2014,06,11,14,34,16.70
2014,06,11,14,35,16.70
2014,06,11,14,36,16.80
2014,06,11,14,37,16.80
2014,06,11,14,38,16.70
2014,06,11,14,39,16.70
2014,06,11,14,40,16.70
2014,06,11,14,41,16.60
2014,06,11,14,42,16.50
2014,06,11,14,43,16.40
2014,06,11,14,44,16.40
2014,06,11,14,45,16.30
2014,06,11,14,46,16.30
2014,06,11,14,47,16.20
2014,06,11,14,48,16.20
2014,06,11,14,49,16.10
2014,06,11,14,50,16.10
2014,06,11,14,51,16.10
2014,06,11,14,52,16.00
2014,06,11,14,53,16.00
2014,06,11,14,54,15.90
2014,06,11,14,55,15.90
2014,06,11,14,56,15.90
2014,06,11,14,57,15.80
2014,06,11,14,58,15.80
2014,06,11,14,59,15.90
2014,06,11,15,00,15.90
2014,06,11,15,01,15.90
2014,06,11,15,02,16.00
2014,06,11,15,03,16.00
2014,06,11,15,04,16.00
2014,06,11,15,05,16.10
2014,06,11,15,06,16.10
2014,06,11,15,07,16.10
2014,06,11,15,08,16.10
2014,06,11,15,09,16.10
2014,06,11,15,10,16.10
2014,06,11,15,11,16.10
2014,06,11,15,12,16.10
2014,06,11,15,13,16.00
2014,06,11,15,14,16.10
2014,06,11,15,15,16.10
2014,06,11,15,16,16.10
2014,06,11,15,17,16.10
2014,06,11,15,18,16.10
2014,06,11,15,19,16.10
2014,06,11,15,20,16.00
2014,06,11,15,21,16.00
2014,06,11,15,22,15.90
2014,06,11,15,23,15.90
2014,06,11,15,24,15.90
2014,06,11,15,25,15.90
2014,06,11,15,26,16.00
2014,06,11,15,27,16.00
2014,06,11,15,28,16.00
2014,06,11,15,29,16.00
2014,06,11,15,30,16.00
2014,06,11,15,31,16.00
2014,06,11,15,32,16.00
2014,06,11,15,33,16.00
2014,06,11,15,34,16.00
2014,06,11,15,35,16.00
2014,06,11,15,36,16.00
2014,06,11,15,37,16.00
2014,06,11,15,38,16.00
2014,06,11,15,39,16.10
2014,06,11,15,40,16.10
2014,06,11,15,41,16.20
2014,06,11,15,42,16.30
2014,06,11,15,43,16.40
2014,06,11,15,44,16.50
2014,06,11,15,45,16.60
2014,06,11,15,46,16.60
2014,06,11,15,47,16.70
2014,06,11,15,48,16.70
2014,06,11,15,49,16.70
2014,06,11,15,50,16.70
2014,06,11,15,51,16.60
2014,06,11,15,52,16.60
2014,06,11,15,53,16.60
2014,06,11,15,54,16.50
2014,06,11,15,55,16.40
2014,06,11,15,56,16.40
2014,06,11,15,57,16.40
2014,06,11,15,58,16.40
2014,06,11,15,59,16.30
2014,06,11,16,00,16.20
2014,06,11,16,01,16.10
2014,06,11,16,02,16.00
2014,06,11,16,03,15.90
2014,06,11,16,04,15.90
2014,06,11,16,05,15.90
2014,06,11,16,06,15.90
2014,06,11,16,07,15.90
2014,06,11,16,08,15.90
2014,06,11,16,09,15.90
2014,06,11,16,10,15.90
2014,06,11,16,11,16.00
2014,06,11,16,12,16.00
2014,06,11,16,13,16.00
2014,06,11,16,14,16.10
2014,06,11,16,15,16.10
2014,06,11,16,16,16.10
2014,06,11,16,17,16.10
2014,06,11,16,18,16.20
2014,06,11,16,19,16.20
2014,06,11,16,20,16.20
2014,06,11,16,21,16.20
2014,06,11,16,22,16.20
2014,06,11,16,23,16.10
2014,06,11,16,24,16.10
2014,06,11,16,25,16.10
2014,06,11,16,26,16.10
2014,06,11,16,27,16.10
2014,06,11,16,28,16.10
2014,06,11,16,29,16.10
2014,06,11,16,30,16.10
2014,06,11,16,31,16.10
2014,06,11,16,32,16.10
2014,06,11,16,33,16.00
2014,06,11,16,34,16.00
2014,06,11,16,35,16.00
2014,06,11,16,36,16.00
2014,06,11,16,37,16.00
2014,06,11,16,38,16.00
2014,06,11,16,39,16.00
2014,06,11,16,40,15.90
2014,06,11,16,41,15.90
2014,06,11,16,42,15.90
2014,06,11,16,43,15.90
2014,06,11,16,44,15.90
2014,06,11,16,45,15.90
2014,06,11,16,46,15.90
2014,06,11,16,47,16.00
2014,06,11,16,48,16.00
2014,06,11,16,49,16.00
2014,06,11,16,50,16.00
2014,06,11,16,51,16.10
2014,06,11,16,52,16.10
2014,06,11,16,53,16.10
2014,06,11,16,54,16.10
2014,06,11,16,55,16.20
2014,06,11,16,56,16.20
2014,06,11,16,57,16.20
2014,06,11,16,58,16.30
2014,06,11,16,59,16.40
2014,06,11,17,00,16.40
2014,06,11,17,01,16.50
2014,06,11,17,02,16.60
2014,06,11,17,03,16.60
2014,06,11,17,04,16.70
2014,06,11,17,05,16.70
2014,06,11,17,06,16.80
2014,06,11,17,07,16.90
2014,06,11,17,08,16.90
2014,06,11,17,09,17.00
2014,06,11,17,10,17.00
2014,06,11,17,11,17.10
2014,06,11,17,12,17.10
2014,06,11,17,13,17.20
2014,06,11,17,14,17.20
2014,06,11,17,15,17.30
2014,06,11,17,16,17.30
2014,06,11,17,17,17.40
2014,06,11,17,18,17.40
2014,06,11,17,19,17.40
2014,06,11,17,20,17.40
2014,06,11,17,21,17.40
2014,06,11,17,22,17.40
2014,06,11,17,23,17.50
2014,06,11,17,24,17.50
2014,06,11,17,25,17.60
2014,06,11,17,26,17.60
2014,06,11,17,27,17.60
2014,06,11,17,28,17.60
2014,06,11,17,29,17.60
2014,06,11,17,30,17.60
2014,06,11,17,31,17.50
2014,06,11,17,32,17.50
2014,06,11,17,33,17.40
2014,06,11,17,34,17.30
2014,06,11,17,35,17.30
2014,06,11,17,36,17.20